ANIK G1

Last updated on Sun Nov 16 2025 00:03:42 GMT+0000 (Coordinated Universal Time)

1 39127U 13014A 25319.39509443 -.00000068 00000+0 00000+0 0 9991 2 39127 0.0566 99.4311 0003447 143.1315 207.1188 1.00272435 46106
UTC large
Height (km)
Speed (km/s)
/
Latitude / Longitude
Inclination (degrees)
Orbital Period (minutes)
Azimuth
Elevation
Range (km)
Doppler Factor

Next 0 passes for location: London (51.5072 / 0.1276)

Sorry there are no passes over London.